DELTA 1 DEB, 2706

Orbit data source: Space-Track

DELTA 1 DEB, 2706 is space debris in SSO originally from a launch on Thu, 26 Jan 1967 UTC launched from the Air Force Western Test Range (AFWTR). Debris objects in space refer to the collection of defunct objects orbiting the Earth. Examples of debris include non-operational satellites, rocket bodies, and fragments generated from explosions, collisions, or faulty payload assembly.

Loading next visibility...
Identifier
2706, 1967-006C
Orbit
SSO
Country
Flag of USUS
Related business
Manufacturer
Unknown
Mission
Spacecraft
Bus & Motor
Unknown
Mass
Unknown
Launch date (UTC)
1967-01-26 (59 years ago)
Launch vehicle
Unknown
Launch site
Air Force Western Test Range (AFWTR)
Object type
Payload
Rocket body
Debris
Shape & HBR
Unknown shape, 0.1 m
Radar Cross Section
Small (<0.1 m²)

Expand to show TLE details & history
Last TLE update: 6 days ago

TLE from 6 days ago
0 DELTA 1 DEB
1 02706U 67006C   26030.04936838 -.00000021  00000-0  15774-3 0  9997
2 02706 102.1953  64.4947 0035213 322.4034  64.9452 12.60930104715148
Epoch: 2026-01-30T01:11Z
TLE epoch observation values (Epoch: 2026-01-30T01:11:05.428Z)
Latitude
27.07578°
Longitude
-88.88271°
Altitude
1,410.564 km
Speed
7.163 km/s
True Right ascension
03h 52m 43s
True Declination
26° 56' 54"
Sunlit
Object was in daylight at epoch
Visualization orbit readout
Latitude
Unknown
Longitude
Unknown
Altitude
Unknown
Speed
Unknown
Apparent Right ascension
Unknown
Apparent Declination
Unknown
Sunlit
N/A
Visualization observer readout
Local Sidereal Time
08:45:17
Azimuth
Unknown
Elevation
Unknown
Doppler factor
Unknown
Orbital elements
Apogee altitude
1,444.115 km
Perigee altitude
1,389.219 km
Semi-major axis
7,794.804 km
Eccentricity
0.00352
Inclination
102.1953°
RAAN
64.4947°
Arg. of periapsis
322.4034°
True anomaly
65.31142°
Mean anomaly
64.9452°
Eccentric anomaly
65.12824°
Mean motion
3.15381 °/min
Orbital period
114.15 mins
BSTAR
0.00015774
Loading maneuver chart data...
Computing Atmospheric mass density...
Loading historical data...
Loading historical data...
Loading historical data...
Loading historical data...
Loading historical data...
Loading historical data...
Loading historical data...
Other satellites on launch #6 in the year 1967 (1967-01-26 UTC)

Documentation

Showing up to 5 results
|